This is the latest recevied weather packets stored in our database for station/object NN3A-3. If no packets are shown the sender has not sent any weather packets the latest 10 day(s).
| Time | Temp. | Humidity | Pressure | Rain* | Wind** | Luminosity | Snow |
|---|---|---|---|---|---|---|---|
| 1778168806 | 16.67° C | 61% | 1009.3 hPa | 0 mm | - | - | - |
| 1778168507 | 15.56° C | 62% | 1009.3 hPa | 0 mm | - | - | - |
| 1778167907 | 16.11° C | 61% | 1009.3 hPa | 0 mm | - | - | - |
| 1778167307 | 17.22° C | 59% | 1009.3 hPa | 0 mm | - | - | - |
| 1778167007 | 17.22° C | 61% | 1009.3 hPa | 0 mm | - | - | - |
| 1778166707 | 17.22° C | 61% | 1009.6 hPa | 0 mm | - | - | - |
| 1778166108 | 16.67° C | 61% | 1009.6 hPa | 0 mm | - | - | - |
| 1778165808 | 16.67° C | 61% | 1009.6 hPa | 0 mm | - | - | - |
| 1778165508 | 15.56° C | 62% | 1009.6 hPa | 0 mm | - | - | - |
| 1778165208 | 16.11° C | 63% | 1010 hPa | 0 mm | - | - | - |
| 1778164909 | 15.56° C | 59% | 1010 hPa | 0 mm | - | - | - |
| 1778164309 | 15.56° C | 60% | 1010 hPa | 0 mm | - | - | - |
| 1778164009 | 16.11° C | 61% | 1010 hPa | 0 mm | - | - | - |
| 1778163709 | 16.67° C | 62% | 1010 hPa | 0 mm | - | - | - |
| 1778163109 | 16.67° C | 61% | 1010.3 hPa | 0 mm | - | - | - |
| 1778162509 | 15° C | 62% | 1010.3 hPa | 0 mm | - | - | - |
| 1778162210 | 16.11° C | 61% | 1010.6 hPa | 0 mm | - | - | - |
| 1778161610 | 15.56° C | 63% | 1010.6 hPa | 0 mm | - | - | - |
| 1778160710 | 13.89° C | 65% | 1011 hPa | 0 mm | - | - | - |
| 1778160411 | 14.44° C | 66% | 1010.6 hPa | 0 mm | - | - | - |
| 1778160111 | 15° C | 67% | 1010.6 hPa | 0 mm | - | - | - |
| 1778159511 | 15° C | 67% | 1010.6 hPa | 0 mm | - | - | - |
| 1778158911 | 14.44° C | 70% | 1011 hPa | 0 mm | - | - | - |
| 1778158612 | 13.89° C | 70% | 1011 hPa | 0 mm | - | - | - |
| 1778158312 | 13.89° C | 71% | 1011 hPa | 0 mm | - | - | - |
* Rain latest hour (hover to see other rain measurements)
** Current wind speed in m/s (hover to see current wind gust speed)